TimeEST,TemperatureF,Dew PointF,Humidity,Sea Level PressureIn,VisibilityMPH,Wind Direction,Wind SpeedMPH,Gust SpeedMPH,PrecipitationIn,Events,Conditions,WindDirDegrees,DateUTC
12:53 AM,71.1,66.9,87,30.13,10.0,Calm,Calm,-,N/A,,Clear,0,2013-01-04 05:53:00
1:53 AM,70.0,66.9,90,30.13,10.0,Calm,Calm,-,N/A,,Clear,0,2013-01-04 06:53:00
2:53 AM,66.2,64.4,94,30.12,9.0,Calm,Calm,-,N/A,,Partly Cloudy,0,2013-01-04 07:53:00
3:53 AM,68.0,66.0,93,30.12,10.0,Calm,Calm,-,N/A,,Clear,0,2013-01-04 08:53:00
4:53 AM,69.1,68.0,96,30.12,10.0,Calm,Calm,-,N/A,,Clear,0,2013-01-04 09:53:00
5:53 AM,69.1,66.9,93,30.14,10.0,Calm,Calm,-,N/A,,Partly Cloudy,0,2013-01-04 10:53:00
6:53 AM,69.1,68.0,96,30.15,10.0,Calm,Calm,-,N/A,,Scattered Clouds,0,2013-01-04 11:53:00
7:48 AM,69.8,66.2,88,30.18,10.0,NNW,3.5,-,N/A,,Mostly Cloudy,330,2013-01-04 12:48:00
7:53 AM,70.0,66.9,90,30.18,10.0,Calm,Calm,-,N/A,,Mostly Cloudy,0,2013-01-04 12:53:00
8:25 AM,71.6,69.8,94,30.19,10.0,Calm,Calm,-,N/A,,Scattered Clouds,0,2013-01-04 13:25:00
8:53 AM,75.0,70.0,84,30.20,10.0,Calm,Calm,-,N/A,,Partly Cloudy,0,2013-01-04 13:53:00
9:53 AM,78.1,71.1,79,30.21,10.0,South,3.5,-,N/A,,Scattered Clouds,180,2013-01-04 14:53:00
10:53 AM,79.0,68.0,69,30.21,10.0,Calm,Calm,-,N/A,,Mostly Cloudy,0,2013-01-04 15:53:00
11:45 AM,78.8,69.8,74,30.19,10.0,WNW,5.8,-,N/A,,Mostly Cloudy,300,2013-01-04 16:45:00
11:53 AM,79.0,69.1,72,30.19,10.0,WNW,5.8,-,0.01,,Mostly Cloudy,300,2013-01-04 16:53:00
12:37 PM,78.8,69.8,74,30.17,10.0,Calm,Calm,-,N/A,,Mostly Cloudy,0,2013-01-04 17:37:00
12:53 PM,79.0,68.0,69,30.16,10.0,Calm,Calm,-,N/A,,Mostly Cloudy,0,2013-01-04 17:53:00
1:53 PM,82.0,66.9,60,30.14,10.0,NNE,5.8,-,N/A,,Mostly Cloudy,30,2013-01-04 18:53:00
2:53 PM,80.1,66.9,64,30.13,10.0,ESE,5.8,-,N/A,,Mostly Cloudy,120,2013-01-04 19:53:00
3:53 PM,79.0,66.9,66,30.14,10.0,ESE,6.9,-,N/A,,Mostly Cloudy,120,2013-01-04 20:53:00
4:53 PM,78.1,69.1,74,30.15,10.0,SE,6.9,-,N/A,,Mostly Cloudy,130,2013-01-04 21:53:00
5:53 PM,77.0,69.1,76,30.17,10.0,SE,8.1,-,N/A,,Mostly Cloudy,130,2013-01-04 22:53:00
6:53 PM,75.9,69.1,79,30.19,10.0,East,8.1,-,N/A,,Mostly Cloudy,80,2013-01-04 23:53:00
7:53 PM,75.9,69.1,79,30.21,10.0,East,5.8,-,N/A,,Mostly Cloudy,80,2013-01-05 00:53:00
8:53 PM,75.9,70.0,82,30.23,10.0,Variable,3.5,-,0.00,Rain,Light Rain,0,2013-01-05 01:53:00
9:53 PM,75.9,70.0,82,30.23,10.0,ENE,5.8,-,0.00,,Mostly Cloudy,60,2013-01-05 02:53:00
10:53 PM,75.0,70.0,84,30.23,10.0,NNE,3.5,-,N/A,,Mostly Cloudy,30,2013-01-05 03:53:00
11:53 PM,73.9,70.0,87,30.22,10.0,Calm,Calm,-,N/A,,Partly Cloudy,0,2013-01-05 04:53:00